Location: Hurstbourne Priors
(51.2000°N, 1.3667°W)
Time: 21:47:54
(UTC+00:00)

Altair - Pass Details

Date: 16 April 2021
Orbit: 1501 x 1683 km, 47.2° (Epoch: 13 May)

Event Time Altitude Azimuth Distance (km) Brightness Sun altitude
Rises 04:37:08 0° 176° (S) 4,867 9.9 -5.4°
Reaches altitude 10° 04:42:19 10° 155° (SSE) 3,850 9.7 -4.6°
Maximum altitude 04:46:53 14° 126° (SE) 3,480 9.8 -4.0°
Drops below altitude 10° 04:51:23 10° 97° (E) 3,789 10.7 -3.3°
Sets 04:56:21 0° 76° (ENE) 4,739 13.0 -2.6°
